This is the latest recevied weather packets stored in our database for station/object KSUZ. If no packets are shown the sender has not sent any weather packets the latest 10 day(s).
| Time | Temp. | Humidity | Pressure | Rain* | Wind** | Luminosity | Snow |
|---|---|---|---|---|---|---|---|
| 1778276021 | 23.89° C | 38% | 1010.5 hPa | - | - | - | - |
| 1778275419 | 23.89° C | 38% | 1010.5 hPa | - | - | - | - |
| 1778274818 | 23.89° C | 41% | 1010.8 hPa | - | - | - | - |
| 1778274218 | 23.89° C | 41% | 1010.8 hPa | - | - | - | - |
| 1778273623 | 23.89° C | 41% | 1011.2 hPa | - | - | - | - |
| 1778273017 | 23.89° C | 41% | 1011.2 hPa | - | - | - | - |
| 1778272421 | 22.78° C | 43% | 1011.2 hPa | - | - | - | - |
| 1778271816 | 22.78° C | 43% | 1011.2 hPa | - | - | - | - |
| 1778271219 | 23.89° C | 41% | 1011.5 hPa | - | - | - | - |
| 1778270617 | 23.89° C | 41% | 1011.5 hPa | - | - | - | - |
| 1778270017 | 22.78° C | 46% | 1012.2 hPa | - | - | - | - |
| 1778269419 | 22.78° C | 46% | 1012.2 hPa | - | - | - | - |
| 1778268817 | 22.78° C | 46% | 1012.2 hPa | - | - | - | - |
| 1778268221 | 22.78° C | 46% | 1012.2 hPa | - | - | - | - |
| 1778267620 | 22.78° C | 43% | 1012.5 hPa | - | - | - | - |
| 1778267022 | 22.78° C | 43% | 1012.5 hPa | - | - | - | - |
| 1778266419 | 21.67° C | 49% | 1012.5 hPa | - | - | - | - |
| 1778265823 | 21.67° C | 49% | 1012.5 hPa | - | - | - | - |
| 1778265222 | 21.67° C | 49% | 1012.9 hPa | - | - | - | - |
| 1778264617 | 21.67° C | 49% | 1012.9 hPa | - | - | - | - |
| 1778264018 | 21.67° C | 49% | 1013.5 hPa | - | - | - | - |
| 1778263419 | 21.67° C | 49% | 1013.5 hPa | - | - | - | - |
| 1778262820 | 21.67° C | 53% | 1013.5 hPa | - | - | - | - |
| 1778262215 | 21.67° C | 53% | 1013.5 hPa | - | - | - | - |
| 1778261620 | 21.67° C | 53% | 1013.9 hPa | - | - | - | - |
* Rain since midnight (hover to see other rain measurements)
** Current wind speed in m/s (hover to see current wind gust speed)